Location: Ikejouine
(32.5142°N, 5.4699°W)
Time: 13:59:22
(UTC+00:00)

IRIDIUM 106 - Pass Details

Date: 09 April 2020
Orbit: 776 x 779 km, 86.4° (Epoch: 04 June)

Event Time Altitude Azimuth Distance (km) Brightness Sun altitude
Rises 19:18:53 0° 4° (N) 3,266 7.7 -7.2°
Reaches altitude 10° 19:21:18 10° 10° (N) 2,334 6.9 -7.7°
Maximum altitude 19:26:23 52° 86° (E) 967 4.5 -8.8°
Drops below altitude 10° 19:31:26 10° 162° (SSE) 2,319 6.5 -9.8°
Sets 19:33:50 0° 167° (SSE) 3,243 7.3 -10.3°
